Вернуться в каталог

OKEAN 2

АктивенНаукаPO
NORAD 20510·PAYLOAD·🇷🇺 Russia

Запущен Feb 28, 1990 с Plesetsk Cosmodrome

Loading…

Ближайшие Пролёты (ближайшие 24 часа)

TLE

СвежийSource: Space-Track

Эпоха: Sep 13, 2026, 23:36 UTC

1 20510U 90018A   26256.98368637  .00003351  00000-0  16800-3 0  9997
2 20510  82.4993 145.6880 0006734  17.0586 353.6914 15.17006481967527

Отслеживайте OKEAN 2 в реальном времени с AllMySat

Download on the App Store